Time,TemperatureF,DewpointF,PressureIn,WindDirection,WindDirectionDegrees,WindSpeedMPH,WindSpeedGustMPH,Humidity,HourlyPrecipIn,Conditions,Clouds,dailyrainin,SoftwareType,DateUTC
2013-07-13 00:00:00,75.7,64.8,29.81,SSW,202,0.0,4.0,69,0.00,,---,0.00,VWS V14.01,2013-07-13 05:00:00,
2013-07-13 00:02:00,75.6,64.7,29.81,SSW,202,0.0,0.0,69,0.00,,---,0.00,VWS V14.01,2013-07-13 05:02:00,
2013-07-13 00:07:00,75.3,64.0,29.80,WSW,246,0.0,1.0,68,0.00,,---,0.00,VWS V14.01,2013-07-13 05:07:00,
2013-07-13 00:12:00,75.4,63.7,29.80,SSE,163,3.0,3.0,67,0.00,,---,0.00,VWS V14.01,2013-07-13 05:12:00,
2013-07-13 00:17:00,75.7,64.0,29.80,WSW,242,0.0,5.0,67,0.00,,---,0.00,VWS V14.01,2013-07-13 05:17:00,
2013-07-13 00:22:00,75.8,64.1,29.81,WSW,242,0.0,5.0,67,0.00,,---,0.00,VWS V14.01,2013-07-13 05:22:00,
2013-07-13 00:27:00,75.7,64.4,29.81,WSW,242,0.0,5.0,68,0.00,,---,0.00,VWS V14.01,2013-07-13 05:27:00,
2013-07-13 00:30:00,75.6,63.9,29.81,NNE,28,0.0,5.0,67,0.00,,---,0.00,VWS V14.01,2013-07-13 05:30:00,
2013-07-13 00:32:00,75.6,63.9,29.81,NNE,28,0.0,0.0,67,0.00,,---,0.00,VWS V14.01,2013-07-13 05:32:00,
2013-07-13 00:37:00,75.5,64.2,29.81,NNE,28,0.0,0.0,68,0.00,,---,0.00,VWS V14.01,2013-07-13 05:37:00,
2013-07-13 00:42:00,75.3,64.4,29.81,NNE,28,0.0,0.0,69,0.00,,---,0.00,VWS V14.01,2013-07-13 05:42:00,
2013-07-13 00:46:00,75.1,63.8,29.81,ESE,117,0.0,1.0,68,0.00,,---,0.00,VWS V14.01,2013-07-13 05:46:00,
2013-07-13 00:51:00,75.0,64.2,29.81,ESE,117,0.0,1.0,69,0.00,,---,0.00,VWS V14.01,2013-07-13 05:51:00,
2013-07-13 00:56:00,74.9,64.1,29.81,ESE,117,0.0,1.0,69,0.00,,---,0.00,VWS V14.01,2013-07-13 05:56:00,
2013-07-13 01:00:00,74.8,64.4,29.81,East,87,0.0,2.0,70,0.00,,---,0.00,VWS V14.01,2013-07-13 06:00:00,
2013-07-13 01:01:00,74.8,64.4,29.81,East,87,0.0,0.0,70,0.00,,---,0.00,VWS V14.01,2013-07-13 06:01:00,
2013-07-13 01:06:00,74.7,64.3,29.82,SE,138,2.0,2.0,70,0.00,,---,0.00,VWS V14.01,2013-07-13 06:06:00,
2013-07-13 01:11:00,74.5,64.5,29.81,SE,128,0.0,2.0,71,0.00,,---,0.00,VWS V14.01,2013-07-13 06:11:00,
2013-07-13 01:16:00,74.3,64.3,29.81,SE,128,0.0,2.0,71,0.00,,---,0.00,VWS V14.01,2013-07-13 06:16:00,
2013-07-13 01:21:00,74.1,64.5,29.82,SE,128,0.0,2.0,72,0.00,,---,0.00,VWS V14.01,2013-07-13 06:21:00,
2013-07-13 01:26:00,74.0,64.4,29.82,SE,128,0.0,2.0,72,0.00,,---,0.00,VWS V14.01,2013-07-13 06:26:00,
2013-07-13 01:30:00,73.8,64.6,29.82,SE,128,0.0,2.0,73,0.00,,---,0.00,VWS V14.01,2013-07-13 06:30:00,
2013-07-13 01:31:00,73.8,64.6,29.82,SE,128,0.0,0.0,73,0.00,,---,0.00,VWS V14.01,2013-07-13 06:31:00,
2013-07-13 01:36:00,73.7,64.5,29.82,SE,128,0.0,0.0,73,0.00,,---,0.00,VWS V14.01,2013-07-13 06:36:00,
2013-07-13 01:41:00,73.5,64.3,29.81,SE,128,0.0,0.0,73,0.00,,---,0.00,VWS V14.01,2013-07-13 06:41:00,
2013-07-13 01:46:00,73.3,64.5,29.81,SE,134,0.0,0.0,74,0.00,,---,0.00,VWS V14.01,2013-07-13 06:46:00,
2013-07-13 01:51:00,73.2,64.4,29.82,SE,134,0.0,1.0,74,0.00,,---,0.00,VWS V14.01,2013-07-13 06:51:00,
2013-07-13 01:56:00,73.0,64.2,29.82,SE,134,0.0,1.0,74,0.00,,---,0.00,VWS V14.01,2013-07-13 06:56:00,
2013-07-13 02:00:00,72.9,64.5,29.83,SE,134,0.0,1.0,75,0.00,,---,0.00,VWS V14.01,2013-07-13 07:00:00,
2013-07-13 02:01:00,72.9,64.5,29.82,SE,134,0.0,0.0,75,0.00,,---,0.00,VWS V14.01,2013-07-13 07:01:00,
2013-07-13 02:06:00,72.8,64.4,29.83,SE,134,0.0,0.0,75,0.00,,---,0.00,VWS V14.01,2013-07-13 07:06:00,
2013-07-13 02:11:00,72.7,64.3,29.83,SE,134,0.0,0.0,75,0.00,,---,0.00,VWS V14.01,2013-07-13 07:11:00,
2013-07-13 02:16:00,72.6,64.6,29.82,SE,134,0.0,0.0,76,0.00,,---,0.00,VWS V14.01,2013-07-13 07:16:00,
2013-07-13 02:21:00,72.6,64.6,29.82,SSE,153,0.0,2.0,76,0.00,,---,0.00,VWS V14.01,2013-07-13 07:21:00,
2013-07-13 02:26:00,72.5,64.5,29.82,ESE,119,0.0,2.0,76,0.00,,---,0.00,VWS V14.01,2013-07-13 07:26:00,
2013-07-13 02:30:00,72.5,64.5,29.82,SSE,148,0.0,2.0,76,0.00,,---,0.00,VWS V14.01,2013-07-13 07:30:00,
2013-07-13 02:31:00,72.5,64.5,29.82,SSE,148,0.0,0.0,76,0.00,,---,0.00,VWS V14.01,2013-07-13 07:31:00,
2013-07-13 02:36:00,72.4,64.4,29.82,SSE,163,0.0,3.0,76,0.00,,---,0.00,VWS V14.01,2013-07-13 07:36:00,
2013-07-13 02:41:00,72.3,64.3,29.82,SSE,159,0.0,5.0,76,0.00,,---,0.00,VWS V14.01,2013-07-13 07:41:00,
2013-07-13 02:46:00,72.2,64.2,29.82,SE,130,0.0,1.0,76,0.00,,---,0.00,VWS V14.01,2013-07-13 07:46:00,
2013-07-13 02:51:00,72.1,64.5,29.81,SE,130,0.0,2.0,77,0.00,,---,0.00,VWS V14.01,2013-07-13 07:51:00,
2013-07-13 02:56:00,72.0,64.4,29.81,SE,141,0.0,3.0,77,0.00,,---,0.00,VWS V14.01,2013-07-13 07:56:00,
2013-07-13 03:00:00,71.8,64.2,29.81,South,190,0.0,3.0,77,0.00,,---,0.00,VWS V14.01,2013-07-13 08:00:00,
2013-07-13 03:01:00,71.8,64.2,29.81,South,169,0.0,2.0,77,0.00,,---,0.00,VWS V14.01,2013-07-13 08:01:00,
2013-07-13 03:06:00,71.7,64.1,29.81,WSW,242,0.0,3.0,77,0.00,,---,0.00,VWS V14.01,2013-07-13 08:06:00,
2013-07-13 03:11:00,71.5,64.3,29.81,North,355,0.0,3.0,78,0.00,,---,0.00,VWS V14.01,2013-07-13 08:11:00,
2013-07-13 03:16:00,71.4,64.2,29.81,SW,236,0.0,3.0,78,0.00,,---,0.00,VWS V14.01,2013-07-13 08:16:00,
2013-07-13 03:21:00,71.3,64.1,29.81,SW,236,0.0,3.0,78,0.00,,---,0.00,VWS V14.01,2013-07-13 08:21:00,
2013-07-13 03:26:00,71.3,64.5,29.82,South,191,0.0,3.0,79,0.00,,---,0.00,VWS V14.01,2013-07-13 08:26:00,
2013-07-13 03:30:00,71.2,64.4,29.82,SSW,206,0.0,3.0,79,0.00,,---,0.00,VWS V14.01,2013-07-13 08:30:00,
2013-07-13 03:31:00,71.2,64.4,29.82,SSW,206,0.0,1.0,79,0.00,,---,0.00,VWS V14.01,2013-07-13 08:31:00,
2013-07-13 03:36:00,71.2,64.4,29.82,SSW,206,1.0,1.0,79,0.00,,---,0.00,VWS V14.01,2013-07-13 08:36:00,
2013-07-13 03:41:00,71.1,64.3,29.83,SSW,195,0.0,2.0,79,0.00,,---,0.00,VWS V14.01,2013-07-13 08:41:00,
2013-07-13 03:46:00,71.0,64.2,29.83,SSW,195,0.0,2.0,79,0.00,,---,0.00,VWS V14.01,2013-07-13 08:46:00,
2013-07-13 03:51:00,71.0,64.5,29.83,SSW,195,0.0,2.0,80,0.00,,---,0.00,VWS V14.01,2013-07-13 08:51:00,
2013-07-13 03:56:00,70.9,64.1,29.83,South,169,0.0,3.0,79,0.00,,---,0.00,VWS V14.01,2013-07-13 08:56:00,
2013-07-13 04:00:00,70.9,64.4,29.83,SSE,168,0.0,3.0,80,0.00,,---,0.00,VWS V14.01,2013-07-13 09:00:00,
2013-07-13 04:01:00,70.8,64.3,29.83,SSE,168,0.0,0.0,80,0.00,,---,0.00,VWS V14.01,2013-07-13 09:01:00,
2013-07-13 04:06:00,70.8,64.3,29.84,ESE,111,0.0,1.0,80,0.00,,---,0.00,VWS V14.01,2013-07-13 09:06:00,
2013-07-13 04:11:00,70.7,64.6,29.84,SSE,158,0.0,2.0,81,0.00,,---,0.00,VWS V14.01,2013-07-13 09:11:00,
2013-07-13 04:16:00,70.6,64.5,29.83,SSE,157,0.0,2.0,81,0.00,,---,0.00,VWS V14.01,2013-07-13 09:16:00,
2013-07-13 04:21:00,70.5,64.4,29.84,South,186,0.0,2.0,81,0.00,,---,0.00,VWS V14.01,2013-07-13 09:21:00,
2013-07-13 04:26:00,70.4,64.7,29.84,South,186,0.0,2.0,82,0.00,,---,0.00,VWS V14.01,2013-07-13 09:26:00,
2013-07-13 04:30:00,70.3,64.6,29.84,South,186,0.0,2.0,82,0.00,,---,0.00,VWS V14.01,2013-07-13 09:30:00,
2013-07-13 04:31:00,70.3,64.6,29.84,South,186,0.0,0.0,82,0.00,,---,0.00,VWS V14.01,2013-07-13 09:31:00,
2013-07-13 04:36:00,70.2,64.4,29.84,South,186,1.0,1.0,82,0.00,,---,0.00,VWS V14.01,2013-07-13 09:36:00,
2013-07-13 04:41:00,70.1,64.4,29.84,South,182,0.0,3.0,82,0.00,,---,0.00,VWS V14.01,2013-07-13 09:41:00,
2013-07-13 04:46:00,70.0,64.3,29.84,South,182,0.0,3.0,82,0.00,,---,0.00,VWS V14.01,2013-07-13 09:46:00,
2013-07-13 04:51:00,70.0,64.3,29.85,South,182,0.0,3.0,82,0.00,,---,0.00,VWS V14.01,2013-07-13 09:51:00,
2013-07-13 04:56:00,70.0,64.6,29.85,South,182,0.0,3.0,83,0.00,,---,0.00,VWS V14.01,2013-07-13 09:56:00,
2013-07-13 05:00:00,70.0,64.6,29.85,South,182,0.0,3.0,83,0.00,,---,0.00,VWS V14.01,2013-07-13 10:00:00,
2013-07-13 05:01:00,70.0,64.6,29.85,South,182,0.0,0.0,83,0.00,,---,0.00,VWS V14.01,2013-07-13 10:01:00,
2013-07-13 05:06:00,70.0,64.6,29.85,SW,214,0.0,1.0,83,0.00,,---,0.00,VWS V14.01,2013-07-13 10:06:00,
2013-07-13 05:11:00,70.0,64.6,29.85,West,269,0.0,3.0,83,0.00,,---,0.00,VWS V14.01,2013-07-13 10:11:00,
2013-07-13 05:16:00,70.1,64.4,29.85,SSE,164,0.0,0.0,82,0.00,,---,0.00,VWS V14.01,2013-07-13 10:16:00,
2013-07-13 05:21:00,70.1,64.4,29.85,South,189,0.0,3.0,82,0.00,,---,0.00,VWS V14.01,2013-07-13 10:21:00,
2013-07-13 05:26:00,70.1,64.4,29.85,SSE,149,0.0,3.0,82,0.00,,---,0.00,VWS V14.01,2013-07-13 10:26:00,
2013-07-13 05:30:00,70.1,64.4,29.85,SSE,150,0.0,3.0,82,0.00,,---,0.00,VWS V14.01,2013-07-13 10:30:00,
2013-07-13 05:31:00,70.1,64.4,29.85,SSE,150,0.0,0.0,82,0.00,,---,0.00,VWS V14.01,2013-07-13 10:31:00,
2013-07-13 05:36:00,70.1,64.4,29.86,SSE,150,0.0,0.0,82,0.00,,---,0.00,VWS V14.01,2013-07-13 10:36:00,
2013-07-13 05:41:00,70.2,64.4,29.86,SSW,196,0.0,2.0,82,0.00,,---,0.00,VWS V14.01,2013-07-13 10:41:00,
2013-07-13 05:46:00,70.2,64.4,29.86,SSW,206,1.0,2.0,82,0.00,,---,0.00,VWS V14.01,2013-07-13 10:46:00,
2013-07-13 05:51:00,70.3,64.6,29.86,SSE,163,0.0,2.0,82,0.00,,---,0.00,VWS V14.01,2013-07-13 10:51:00,
2013-07-13 05:56:00,70.3,64.6,29.86,SSE,157,0.0,4.0,82,0.00,,---,0.00,VWS V14.01,2013-07-13 10:56:00,
2013-07-13 06:00:00,70.4,65.0,29.86,SSE,160,0.0,4.0,83,0.00,,---,0.00,VWS V14.01,2013-07-13 11:00:00,
2013-07-13 06:01:00,70.4,65.0,29.86,SSE,160,0.0,0.0,83,0.00,,---,0.00,VWS V14.01,2013-07-13 11:01:00,
2013-07-13 06:06:00,70.4,65.0,29.87,South,190,0.0,5.0,83,0.00,,---,0.00,VWS V14.01,2013-07-13 11:06:00,
2013-07-13 06:11:00,70.5,65.1,29.87,South,190,0.0,5.0,83,0.00,,---,0.00,VWS V14.01,2013-07-13 11:11:00,
2013-07-13 06:16:00,70.5,65.1,29.87,South,190,0.0,5.0,83,0.00,,---,0.00,VWS V14.01,2013-07-13 11:16:00,
2013-07-13 06:21:00,70.6,65.2,29.86,South,190,0.0,5.0,83,0.00,,---,0.00,VWS V14.01,2013-07-13 11:21:00,
2013-07-13 06:26:00,70.6,65.2,29.86,SSW,192,1.0,5.0,83,0.00,,---,0.00,VWS V14.01,2013-07-13 11:26:00,
2013-07-13 06:30:00,70.8,65.4,29.86,SSW,192,0.0,5.0,83,0.00,,---,0.00,VWS V14.01,2013-07-13 11:30:00,
2013-07-13 06:31:00,70.8,65.4,29.87,SSW,192,0.0,0.0,83,0.00,,---,0.00,VWS V14.01,2013-07-13 11:31:00,
2013-07-13 06:36:00,70.9,65.5,29.87,SSW,193,0.0,0.0,83,0.00,,---,0.00,VWS V14.01,2013-07-13 11:36:00,
2013-07-13 06:41:00,70.9,65.5,29.87,SSW,193,1.0,1.0,83,0.00,,---,0.00,VWS V14.01,2013-07-13 11:41:00,
2013-07-13 06:46:00,70.9,65.5,29.87,SSE,150,0.0,1.0,83,0.00,,---,0.00,VWS V14.01,2013-07-13 11:46:00,
2013-07-13 06:51:00,70.8,65.4,29.87,SSE,150,0.0,1.0,83,0.00,,---,0.00,VWS V14.01,2013-07-13 11:51:00,
2013-07-13 06:56:00,70.8,65.4,29.87,South,189,0.0,6.0,83,0.00,,---,0.00,VWS V14.01,2013-07-13 11:56:00,
2013-07-13 07:00:00,70.8,65.7,29.87,SE,133,2.0,6.0,84,0.00,,---,0.00,VWS V14.01,2013-07-13 12:00:00,
2013-07-13 07:01:00,70.8,65.4,29.87,SE,133,0.0,2.0,83,0.00,,---,0.00,VWS V14.01,2013-07-13 12:01:00,
2013-07-13 07:06:00,70.8,65.4,29.87,SE,140,0.0,3.0,83,0.00,,---,0.00,VWS V14.01,2013-07-13 12:06:00,
2013-07-13 07:11:00,70.7,65.3,29.87,SSW,205,0.0,3.0,83,0.00,,---,0.00,VWS V14.01,2013-07-13 12:11:00,
2013-07-13 07:16:00,70.7,65.6,29.87,SSW,205,0.0,3.0,84,0.00,,---,0.00,VWS V14.01,2013-07-13 12:16:00,
2013-07-13 07:21:00,70.7,65.3,29.88,SSW,205,0.0,3.0,83,0.00,,---,0.00,VWS V14.01,2013-07-13 12:21:00,
2013-07-13 07:26:00,70.8,65.4,29.88,SSW,205,0.0,3.0,83,0.00,,---,0.00,VWS V14.01,2013-07-13 12:26:00,
2013-07-13 07:30:00,70.9,65.5,29.88,ESE,123,0.0,3.0,83,0.00,,---,0.00,VWS V14.01,2013-07-13 12:30:00,
2013-07-13 07:31:00,70.9,65.5,29.88,ESE,122,0.0,0.0,83,0.00,,---,0.00,VWS V14.01,2013-07-13 12:31:00,
2013-07-13 07:36:00,71.0,65.6,29.88,ESE,122,1.0,2.0,83,0.00,,---,0.00,VWS V14.01,2013-07-13 12:36:00,
2013-07-13 07:41:00,71.1,65.3,29.88,SE,136,0.0,2.0,82,0.00,,---,0.00,VWS V14.01,2013-07-13 12:41:00,
2013-07-13 07:46:00,71.3,65.9,29.89,SE,136,0.0,2.0,83,0.00,,---,0.00,VWS V14.01,2013-07-13 12:46:00,
2013-07-13 07:51:00,71.3,65.2,29.89,SSW,198,0.0,3.0,81,0.00,,---,0.00,VWS V14.01,2013-07-13 12:51:00,
2013-07-13 07:56:00,71.5,65.0,29.89,SE,146,0.0,4.0,80,0.00,,---,0.00,VWS V14.01,2013-07-13 12:56:00,
2013-07-13 08:00:00,71.7,65.2,29.89,ESE,103,0.0,4.0,80,0.00,,---,0.00,VWS V14.01,2013-07-13 13:00:00,
2013-07-13 08:01:00,71.7,64.8,29.89,ESE,102,1.0,1.0,79,0.00,,---,0.00,VWS V14.01,2013-07-13 13:01:00,
2013-07-13 08:06:00,71.7,64.8,29.88,ESE,102,0.0,1.0,79,0.00,,---,0.00,VWS V14.01,2013-07-13 13:06:00,
2013-07-13 08:11:00,71.6,64.4,29.89,SE,130,0.0,5.0,78,0.00,,---,0.00,VWS V14.01,2013-07-13 13:11:00,
2013-07-13 08:16:00,71.5,64.7,29.89,SSE,148,0.0,5.0,79,0.00,,---,0.00,VWS V14.01,2013-07-13 13:16:00,
2013-07-13 08:21:00,71.4,64.2,29.88,SSE,167,0.0,5.0,78,0.00,,---,0.00,VWS V14.01,2013-07-13 13:21:00,
2013-07-13 08:26:00,71.4,64.6,29.88,SSE,167,0.0,5.0,79,0.00,,---,0.00,VWS V14.01,2013-07-13 13:26:00,
2013-07-13 08:30:00,71.4,64.6,29.88,SSE,162,2.0,5.0,79,0.00,,---,0.00,VWS V14.01,2013-07-13 13:30:00,
2013-07-13 08:31:00,71.4,64.6,29.89,SSW,192,0.0,3.0,79,0.00,,---,0.00,VWS V14.01,2013-07-13 13:31:00,
2013-07-13 08:32:00,71.4,64.2,29.88,East,85,1.0,3.0,78,0.00,,---,0.00,VWS V14.01,2013-07-13 13:32:00,
2013-07-13 08:37:00,71.4,64.2,29.89,WSW,250,0.0,5.0,78,0.00,,---,0.00,VWS V14.01,2013-07-13 13:37:00,
2013-07-13 08:42:00,71.4,64.2,29.89,South,171,0.0,5.0,78,0.00,,---,0.00,VWS V14.01,2013-07-13 13:42:00,
2013-07-13 08:47:00,71.5,64.7,29.89,ESE,117,0.0,5.0,79,0.00,,---,0.00,VWS V14.01,2013-07-13 13:47:00,
2013-07-13 08:52:00,71.7,64.8,29.89,ESE,117,0.0,5.0,79,0.00,,---,0.00,VWS V14.01,2013-07-13 13:52:00,
2013-07-13 08:57:00,72.0,64.8,29.89,ESE,117,0.0,5.0,78,0.00,,---,0.00,VWS V14.01,2013-07-13 13:57:00,
2013-07-13 09:00:00,72.1,64.9,29.89,ESE,114,0.0,5.0,78,0.00,,---,0.00,VWS V14.01,2013-07-13 14:00:00,
2013-07-13 09:02:00,72.1,64.9,29.89,ESE,106,0.0,2.0,78,0.00,,---,0.00,VWS V14.01,2013-07-13 14:02:00,
2013-07-13 09:07:00,72.1,64.5,29.89,ESE,106,0.0,2.0,77,0.00,,---,0.00,VWS V14.01,2013-07-13 14:07:00,
2013-07-13 09:12:00,72.2,65.0,29.89,South,175,0.0,2.0,78,0.00,,---,0.00,VWS V14.01,2013-07-13 14:12:00,
2013-07-13 09:17:00,72.4,64.8,29.89,South,175,0.0,2.0,77,0.00,,---,0.00,VWS V14.01,2013-07-13 14:17:00,
2013-07-13 09:22:00,72.5,64.9,29.89,SSW,192,4.0,4.0,77,0.00,,---,0.00,VWS V14.01,2013-07-13 14:22:00,
2013-07-13 09:27:00,72.6,65.0,29.89,SE,146,0.0,5.0,77,0.00,,---,0.00,VWS V14.01,2013-07-13 14:27:00,
2013-07-13 09:30:00,72.6,65.0,29.89,SSE,148,0.0,5.0,77,0.00,,---,0.00,VWS V14.01,2013-07-13 14:30:00,
2013-07-13 09:32:00,72.6,65.0,29.89,SSE,148,0.0,0.0,77,0.00,,---,0.00,VWS V14.01,2013-07-13 14:32:00,
2013-07-13 09:37:00,72.7,65.4,29.89,South,181,0.0,2.0,78,0.00,,---,0.00,VWS V14.01,2013-07-13 14:37:00,
2013-07-13 09:42:00,72.7,65.4,29.90,South,180,0.0,2.0,78,0.00,,---,0.00,VWS V14.01,2013-07-13 14:42:00,
2013-07-13 09:47:00,72.7,65.1,29.90,South,180,0.0,2.0,77,0.00,,---,0.00,VWS V14.01,2013-07-13 14:47:00,
2013-07-13 09:52:00,72.5,64.9,29.90,South,181,0.0,2.0,77,0.00,,---,0.00,VWS V14.01,2013-07-13 14:52:00,
2013-07-13 09:57:00,72.5,65.3,29.89,South,180,0.0,2.0,78,0.00,,---,0.00,VWS V14.01,2013-07-13 14:57:00,
2013-07-13 10:00:00,72.6,65.3,29.89,South,181,0.0,2.0,78,0.00,,---,0.00,VWS V14.01,2013-07-13 15:00:00,
2013-07-13 10:02:00,72.6,65.3,29.89,South,181,0.0,0.0,78,0.00,,---,0.00,VWS V14.01,2013-07-13 15:02:00,
2013-07-13 10:07:00,72.8,65.6,29.89,South,181,0.0,0.0,78,0.00,,---,0.00,VWS V14.01,2013-07-13 15:07:00,
2013-07-13 10:12:00,73.0,65.7,29.89,South,181,0.0,0.0,78,0.00,,---,0.00,VWS V14.01,2013-07-13 15:12:00,
2013-07-13 10:17:00,73.3,65.7,29.89,SSW,192,1.0,1.0,77,0.00,,---,0.00,VWS V14.01,2013-07-13 15:17:00,
2013-07-13 10:22:00,73.3,65.3,29.89,SSW,192,0.0,1.0,76,0.00,,---,0.00,VWS V14.01,2013-07-13 15:22:00,
2013-07-13 10:27:00,73.4,65.4,29.89,SSW,192,0.0,1.0,76,0.00,,---,0.00,VWS V14.01,2013-07-13 15:27:00,
2013-07-13 10:30:00,73.5,65.5,29.89,SSW,192,0.0,1.0,76,0.00,,---,0.00,VWS V14.01,2013-07-13 15:30:00,
2013-07-13 10:32:00,73.5,65.5,29.89,SSW,192,0.0,0.0,76,0.00,,---,0.00,VWS V14.01,2013-07-13 15:32:00,
2013-07-13 10:37:00,73.7,66.1,29.89,SSW,192,0.0,0.0,77,0.00,,---,0.00,VWS V14.01,2013-07-13 15:37:00,
2013-07-13 10:42:00,73.9,65.5,29.89,SSW,192,0.0,1.0,75,0.00,,---,0.00,VWS V14.01,2013-07-13 15:42:00,
2013-07-13 10:47:00,74.1,65.3,29.89,SSW,192,0.0,1.0,74,0.00,,---,0.00,VWS V14.01,2013-07-13 15:47:00,
2013-07-13 10:52:00,74.2,66.2,29.89,SSW,192,0.0,2.0,76,0.00,,---,0.00,VWS V14.01,2013-07-13 15:52:00,
2013-07-13 10:57:00,74.2,65.4,29.90,SSW,192,0.0,2.0,74,0.00,,---,0.00,VWS V14.01,2013-07-13 15:57:00,
2013-07-13 11:00:00,74.0,65.2,29.90,South,186,3.0,3.0,74,0.00,,---,0.00,VWS V14.01,2013-07-13 16:00:00,
2013-07-13 11:03:00,73.8,65.0,29.89,South,186,0.0,0.0,74,0.00,,---,0.00,VWS V14.01,2013-07-13 16:03:00,
2013-07-13 11:08:00,73.7,65.7,29.89,South,186,0.0,0.0,76,0.00,,---,0.00,VWS V14.01,2013-07-13 16:08:00,
2013-07-13 11:13:00,73.8,65.8,29.90,South,186,0.0,0.0,76,0.00,,---,0.00,VWS V14.01,2013-07-13 16:13:00,
2013-07-13 11:18:00,73.9,65.5,29.90,South,186,0.0,0.0,75,0.00,,---,0.00,VWS V14.01,2013-07-13 16:18:00,
2013-07-13 11:23:00,73.9,65.5,29.90,South,186,0.0,0.0,75,0.00,,---,0.00,VWS V14.01,2013-07-13 16:23:00,
2013-07-13 11:28:00,73.9,65.5,29.90,South,186,0.0,0.0,75,0.00,,---,0.00,VWS V14.01,2013-07-13 16:28:00,
2013-07-13 11:30:00,73.7,65.3,29.90,South,186,0.0,1.0,75,0.00,,---,0.00,VWS V14.01,2013-07-13 16:30:00,
2013-07-13 11:33:00,73.6,65.6,29.90,South,186,0.0,0.0,76,0.00,,---,0.00,VWS V14.01,2013-07-13 16:33:00,
2013-07-13 11:38:00,73.4,65.4,29.91,South,186,0.0,1.0,76,0.00,,---,0.00,VWS V14.01,2013-07-13 16:38:00,
2013-07-13 11:43:00,73.3,65.7,29.91,South,186,0.0,1.0,77,0.00,,---,0.00,VWS V14.01,2013-07-13 16:43:00,
2013-07-13 11:48:00,73.3,65.3,29.91,South,186,0.0,1.0,76,0.00,,---,0.00,VWS V14.01,2013-07-13 16:48:00,
2013-07-13 11:53:00,73.2,65.6,29.91,South,186,0.0,1.0,77,0.00,,---,0.00,VWS V14.01,2013-07-13 16:53:00,
2013-07-13 11:58:00,73.1,65.1,29.91,South,186,0.0,1.0,76,0.00,,---,0.00,VWS V14.01,2013-07-13 16:58:00,
2013-07-13 12:00:00,73.1,65.1,29.91,South,182,0.0,2.0,76,0.00,,---,0.00,VWS V14.01,2013-07-13 17:00:00,
2013-07-13 12:03:00,73.1,65.5,29.91,South,182,0.0,0.0,77,0.00,,---,0.00,VWS V14.01,2013-07-13 17:03:00,
2013-07-13 12:08:00,73.1,65.8,29.91,South,182,0.0,0.0,78,0.00,,---,0.00,VWS V14.01,2013-07-13 17:08:00,
2013-07-13 12:13:00,73.3,65.7,29.90,South,182,0.0,0.0,77,0.00,,---,0.00,VWS V14.01,2013-07-13 17:13:00,
2013-07-13 12:18:00,73.5,65.5,29.90,South,182,0.0,0.0,76,0.00,,---,0.00,VWS V14.01,2013-07-13 17:18:00,
2013-07-13 12:23:00,73.8,65.8,29.91,SSE,148,0.0,2.0,76,0.00,,---,0.00,VWS V14.01,2013-07-13 17:23:00,
2013-07-13 12:28:00,73.9,65.9,29.91,SSE,148,0.0,2.0,76,0.00,,---,0.00,VWS V14.01,2013-07-13 17:28:00,
2013-07-13 12:30:00,74.0,66.0,29.90,SSE,148,0.0,2.0,76,0.00,,---,0.00,VWS V14.01,2013-07-13 17:30:00,
2013-07-13 12:33:00,74.0,66.0,29.90,SSE,148,0.0,0.0,76,0.00,,---,0.00,VWS V14.01,2013-07-13 17:33:00,
2013-07-13 12:38:00,74.0,66.3,29.90,SSE,148,0.0,0.0,77,0.00,,---,0.00,VWS V14.01,2013-07-13 17:38:00,
2013-07-13 12:43:00,74.0,66.3,29.90,SSE,148,0.0,0.0,77,0.00,,---,0.00,VWS V14.01,2013-07-13 17:43:00,
2013-07-13 12:48:00,74.1,66.1,29.89,SSE,148,0.0,0.0,76,0.00,,---,0.00,VWS V14.01,2013-07-13 17:48:00,
2013-07-13 12:53:00,74.1,66.4,29.90,SSE,148,0.0,0.0,77,0.00,,---,0.00,VWS V14.01,2013-07-13 17:53:00,
2013-07-13 12:58:00,74.2,66.5,29.91,SSE,148,0.0,0.0,77,0.00,,---,0.00,VWS V14.01,2013-07-13 17:58:00,
2013-07-13 13:00:00,74.3,66.6,29.90,SSE,148,0.0,0.0,77,0.00,,---,0.00,VWS V14.01,2013-07-13 18:00:00,
2013-07-13 13:03:00,74.2,66.5,29.90,SSE,148,0.0,1.0,77,0.00,,---,0.00,VWS V14.01,2013-07-13 18:03:00,
2013-07-13 13:08:00,74.2,66.5,29.90,SSE,148,0.0,1.0,77,0.00,,---,0.00,VWS V14.01,2013-07-13 18:08:00,
2013-07-13 13:13:00,74.2,66.9,29.90,SSE,148,0.0,1.0,78,0.00,,---,0.00,VWS V14.01,2013-07-13 18:13:00,
2013-07-13 13:18:00,74.2,66.5,29.90,SSE,148,0.0,1.0,77,0.00,,---,0.00,VWS V14.01,2013-07-13 18:18:00,
2013-07-13 13:23:00,74.2,66.9,29.89,South,173,0.0,1.0,78,0.00,,---,0.00,VWS V14.01,2013-07-13 18:23:00,
2013-07-13 13:28:00,74.5,67.6,29.89,South,173,0.0,1.0,79,0.00,,---,0.00,VWS V14.01,2013-07-13 18:28:00,
2013-07-13 13:30:00,74.6,67.3,29.89,South,173,0.0,1.0,78,0.00,,---,0.00,VWS V14.01,2013-07-13 18:30:00,
2013-07-13 13:33:00,74.6,66.9,29.90,SW,227,0.0,3.0,77,0.00,,---,0.00,VWS V14.01,2013-07-13 18:33:00,
2013-07-13 13:38:00,74.7,67.0,29.89,SW,227,0.0,3.0,77,0.00,,---,0.00,VWS V14.01,2013-07-13 18:38:00,
2013-07-13 13:43:00,74.7,67.0,29.89,SE,134,0.0,3.0,77,0.00,,---,0.00,VWS V14.01,2013-07-13 18:43:00,
2013-07-13 13:48:00,74.7,67.0,29.90,SE,134,0.0,3.0,77,0.00,,---,0.00,VWS V14.01,2013-07-13 18:48:00,
2013-07-13 13:53:00,74.5,66.8,29.90,SE,134,0.0,3.0,77,0.00,,---,0.00,VWS V14.01,2013-07-13 18:53:00,
2013-07-13 13:58:00,74.4,67.1,29.90,SE,134,0.0,3.0,78,0.00,,---,0.00,VWS V14.01,2013-07-13 18:58:00,
2013-07-13 14:00:00,74.2,66.5,29.90,SE,134,0.0,3.0,77,0.00,,---,0.00,VWS V14.01,2013-07-13 19:00:00,
2013-07-13 14:03:00,74.1,66.4,29.91,SE,133,0.0,0.0,77,0.00,,---,0.00,VWS V14.01,2013-07-13 19:03:00,
2013-07-13 14:08:00,73.8,66.2,29.91,SE,134,0.0,0.0,77,0.00,,---,0.00,VWS V14.01,2013-07-13 19:08:00,
2013-07-13 14:13:00,73.6,66.3,29.91,SE,134,0.0,0.0,78,0.00,,---,0.00,VWS V14.01,2013-07-13 19:13:00,
2013-07-13 14:18:00,73.4,66.1,29.91,SE,134,0.0,0.0,78,0.00,,---,0.00,VWS V14.01,2013-07-13 19:18:00,
2013-07-13 14:23:00,73.4,66.5,29.91,SE,134,0.0,0.0,79,0.00,,---,0.00,VWS V14.01,2013-07-13 19:23:00,
2013-07-13 14:28:00,73.4,66.5,29.91,SE,134,0.0,0.0,79,0.00,,---,0.00,VWS V14.01,2013-07-13 19:28:00,
2013-07-13 14:30:00,73.4,66.9,29.91,SE,134,0.0,0.0,80,0.00,,---,0.00,VWS V14.01,2013-07-13 19:30:00,
2013-07-13 14:33:00,73.4,66.9,29.91,SE,134,0.0,0.0,80,0.00,,---,0.00,VWS V14.01,2013-07-13 19:33:00,
2013-07-13 14:38:00,73.4,66.9,29.91,SE,134,0.0,0.0,80,0.00,,---,0.00,VWS V14.01,2013-07-13 19:38:00,
2013-07-13 14:43:00,73.4,66.9,29.91,SE,133,0.0,0.0,80,0.00,,---,0.00,VWS V14.01,2013-07-13 19:43:00,
2013-07-13 14:48:00,73.5,67.0,29.92,SE,134,0.0,0.0,80,0.00,,---,0.00,VWS V14.01,2013-07-13 19:48:00,
2013-07-13 14:53:00,73.7,67.2,29.92,SE,133,0.0,0.0,80,0.00,,---,0.00,VWS V14.01,2013-07-13 19:53:00,
2013-07-13 14:58:00,73.7,66.8,29.92,SE,134,0.0,0.0,79,0.00,,---,0.00,VWS V14.01,2013-07-13 19:58:00,
2013-07-13 15:00:00,73.8,66.9,29.92,SE,134,0.0,0.0,79,0.00,,---,0.00,VWS V14.01,2013-07-13 20:00:00,
2013-07-13 15:03:00,73.8,67.2,29.92,SE,134,0.0,0.0,80,0.00,,---,0.00,VWS V14.01,2013-07-13 20:03:00,
2013-07-13 15:08:00,74.0,67.4,29.92,SE,133,0.0,0.0,80,0.00,,---,0.00,VWS V14.01,2013-07-13 20:08:00,
2013-07-13 15:13:00,74.2,67.3,29.93,SE,133,0.0,0.0,79,0.00,,---,0.00,VWS V14.01,2013-07-13 20:13:00,
2013-07-13 15:18:00,74.2,66.5,29.93,SE,133,1.0,2.0,77,0.00,,---,0.00,VWS V14.01,2013-07-13 20:18:00,
2013-07-13 15:23:00,74.0,66.7,29.93,SE,134,1.0,2.0,78,0.00,,---,0.00,VWS V14.01,2013-07-13 20:23:00,
2013-07-13 15:28:00,73.7,66.4,29.94,SE,142,0.0,3.0,78,0.00,,---,0.00,VWS V14.01,2013-07-13 20:28:00,
2013-07-13 15:30:00,73.5,65.9,29.94,SE,142,0.0,3.0,77,0.00,,---,0.00,VWS V14.01,2013-07-13 20:30:00,
2013-07-13 15:33:00,73.5,66.2,29.94,SE,142,0.0,0.0,78,0.00,,---,0.00,VWS V14.01,2013-07-13 20:33:00,
2013-07-13 15:38:00,73.3,66.0,29.94,NW,310,0.0,2.0,78,0.00,,---,0.00,VWS V14.01,2013-07-13 20:38:00,
2013-07-13 15:43:00,73.2,65.9,29.94,SE,146,0.0,3.0,78,0.00,,---,0.00,VWS V14.01,2013-07-13 20:43:00,
2013-07-13 15:48:00,73.1,66.2,29.94,SE,146,0.0,3.0,79,0.00,,---,0.00,VWS V14.01,2013-07-13 20:48:00,
2013-07-13 15:53:00,73.0,65.7,29.94,SE,136,0.0,3.0,78,0.00,,---,0.00,VWS V14.01,2013-07-13 20:53:00,
2013-07-13 15:58:00,72.8,65.6,29.94,SE,136,0.0,3.0,78,0.00,,---,0.00,VWS V14.01,2013-07-13 20:58:00,
2013-07-13 16:00:00,72.8,65.9,29.94,SE,136,0.0,3.0,79,0.00,,---,0.00,VWS V14.01,2013-07-13 21:00:00,
2013-07-13 16:03:00,72.8,65.6,29.94,SE,136,0.0,0.0,78,0.00,,---,0.00,VWS V14.01,2013-07-13 21:03:00,
2013-07-13 16:08:00,72.8,65.6,29.94,SSE,154,0.0,4.0,78,0.00,,---,0.00,VWS V14.01,2013-07-13 21:08:00,
2013-07-13 16:13:00,72.8,65.6,29.94,SSE,154,0.0,4.0,78,0.00,,---,0.00,VWS V14.01,2013-07-13 21:13:00,
2013-07-13 16:18:00,72.8,65.6,29.94,WNW,284,0.0,4.0,78,0.00,,---,0.00,VWS V14.01,2013-07-13 21:18:00,
2013-07-13 16:23:00,72.9,65.7,29.94,WNW,283,0.0,4.0,78,0.00,,---,0.00,VWS V14.01,2013-07-13 21:23:00,
2013-07-13 16:28:00,72.9,65.7,29.94,SSW,211,0.0,4.0,78,0.00,,---,0.00,VWS V14.01,2013-07-13 21:28:00,
2013-07-13 16:30:00,72.9,65.6,29.94,SSW,199,0.0,4.0,78,0.00,,---,0.00,VWS V14.01,2013-07-13 21:30:00,
2013-07-13 16:33:00,72.9,65.7,29.94,SSW,199,0.0,0.0,78,0.00,,---,0.00,VWS V14.01,2013-07-13 21:33:00,
2013-07-13 16:38:00,73.0,65.7,29.94,SSW,199,0.0,1.0,78,0.00,,---,0.00,VWS V14.01,2013-07-13 21:38:00,
2013-07-13 16:43:00,73.0,65.7,29.94,SSW,199,0.0,1.0,78,0.00,,---,0.00,VWS V14.01,2013-07-13 21:43:00,
2013-07-13 16:48:00,73.0,66.1,29.94,SSW,199,0.0,1.0,79,0.00,,---,0.00,VWS V14.01,2013-07-13 21:48:00,
2013-07-13 16:53:00,73.1,66.2,29.93,SSW,199,0.0,1.0,79,0.00,,---,0.00,VWS V14.01,2013-07-13 21:53:00,
2013-07-13 16:58:00,73.2,65.9,29.94,SSW,199,0.0,1.0,78,0.00,,---,0.00,VWS V14.01,2013-07-13 21:58:00,
2013-07-13 17:00:00,73.3,66.0,29.93,SSW,199,0.0,1.0,78,0.00,,---,0.00,VWS V14.01,2013-07-13 22:00:00,
2013-07-13 17:03:00,73.4,66.5,29.93,SSW,199,0.0,0.0,79,0.00,,---,0.00,VWS V14.01,2013-07-13 22:03:00,
2013-07-13 17:08:00,73.7,66.4,29.93,SSW,199,0.0,1.0,78,0.00,,---,0.00,VWS V14.01,2013-07-13 22:08:00,
2013-07-13 17:13:00,74.0,66.7,29.93,SSW,199,0.0,1.0,78,0.00,,---,0.00,VWS V14.01,2013-07-13 22:13:00,
2013-07-13 17:18:00,74.4,67.1,29.93,SSW,199,0.0,1.0,78,0.00,,---,0.00,VWS V14.01,2013-07-13 22:18:00,
2013-07-13 17:23:00,74.6,66.5,29.94,SSW,199,0.0,1.0,76,0.00,,---,0.00,VWS V14.01,2013-07-13 22:23:00,
2013-07-13 17:28:00,74.8,67.1,29.94,SSW,199,0.0,1.0,77,0.00,,---,0.00,VWS V14.01,2013-07-13 22:28:00,
2013-07-13 17:30:00,74.8,67.1,29.94,SSW,199,0.0,1.0,77,0.00,,---,0.00,VWS V14.01,2013-07-13 22:30:00,
2013-07-13 17:33:00,74.8,66.3,29.94,SSW,199,0.0,1.0,75,0.00,,---,0.00,VWS V14.01,2013-07-13 22:33:00,
2013-07-13 17:38:00,74.6,66.2,29.94,SSW,199,0.0,1.0,75,0.00,,---,0.00,VWS V14.01,2013-07-13 22:38:00,
2013-07-13 17:43:00,74.5,66.8,29.94,SSW,199,0.0,1.0,77,0.00,,---,0.00,VWS V14.01,2013-07-13 22:43:00,
2013-07-13 17:48:00,74.5,67.2,29.94,SSW,199,0.0,1.0,78,0.00,,---,0.00,VWS V14.01,2013-07-13 22:48:00,
2013-07-13 17:53:00,74.4,66.7,29.94,SSE,163,0.0,3.0,77,0.00,,---,0.00,VWS V14.01,2013-07-13 22:53:00,
2013-07-13 17:58:00,74.5,67.2,29.94,SSE,163,0.0,3.0,78,0.00,,---,0.00,VWS V14.01,2013-07-13 22:58:00,
2013-07-13 18:00:00,74.6,67.3,29.93,SSE,163,0.0,3.0,78,0.00,,---,0.00,VWS V14.01,2013-07-13 23:00:00,
2013-07-13 18:03:00,74.7,67.4,29.93,SSE,163,0.0,0.0,78,0.00,,---,0.00,VWS V14.01,2013-07-13 23:03:00,
2013-07-13 18:08:00,74.8,67.5,29.93,SSE,163,0.0,0.0,78,0.00,,---,0.00,VWS V14.01,2013-07-13 23:08:00,
2013-07-13 18:13:00,74.9,67.2,29.93,SSE,163,0.0,0.0,77,0.00,,---,0.00,VWS V14.01,2013-07-13 23:13:00,
2013-07-13 18:18:00,75.1,67.4,29.93,SSE,163,0.0,0.0,77,0.00,,---,0.00,VWS V14.01,2013-07-13 23:18:00,
2013-07-13 18:23:00,75.2,67.5,29.93,SSE,163,0.0,0.0,77,0.00,,---,0.00,VWS V14.01,2013-07-13 23:23:00,
2013-07-13 18:28:00,75.4,67.7,29.93,SSE,163,0.0,0.0,77,0.00,,---,0.00,VWS V14.01,2013-07-13 23:28:00,
2013-07-13 18:30:00,75.4,67.7,29.93,SSE,163,0.0,0.0,77,0.00,,---,0.00,VWS V14.01,2013-07-13 23:30:00,
2013-07-13 18:33:00,75.5,67.8,29.93,SSE,163,0.0,0.0,77,0.00,,---,0.00,VWS V14.01,2013-07-13 23:33:00,
2013-07-13 18:38:00,75.6,67.9,29.93,SSE,163,0.0,0.0,77,0.00,,---,0.00,VWS V14.01,2013-07-13 23:38:00,
2013-07-13 18:43:00,75.8,68.1,29.92,SSE,163,0.0,0.0,77,0.00,,---,0.00,VWS V14.01,2013-07-13 23:43:00,
2013-07-13 18:48:00,76.1,68.0,29.92,SSE,163,0.0,0.0,76,0.00,,---,0.00,VWS V14.01,2013-07-13 23:48:00,
2013-07-13 18:53:00,76.4,68.7,29.92,SSE,163,0.0,0.0,77,0.00,,---,0.00,VWS V14.01,2013-07-13 23:53:00,
2013-07-13 19:00:00,76.7,67.8,29.92,SSE,163,0.0,1.0,74,0.00,,---,0.00,VWS V14.01,2013-07-14 00:00:00,
2013-07-13 19:30:00,75.2,67.1,29.92,SE,144,0.0,0.0,76,0.00,,---,0.00,VWS V14.01,2013-07-14 00:30:00,
2013-07-13 20:00:00,74.6,67.3,29.92,SE,144,0.0,0.0,78,0.00,,---,0.00,VWS V14.01,2013-07-14 01:00:00,
2013-07-13 20:30:00,73.8,66.9,29.92,SE,130,0.0,0.0,79,0.00,,---,0.00,VWS V14.01,2013-07-14 01:30:00,
2013-07-13 21:00:00,72.9,66.4,29.92,SSE,163,0.0,5.0,80,0.00,,---,0.00,VWS V14.01,2013-07-14 02:00:00,
2013-07-13 21:30:00,71.7,65.2,29.93,SE,146,1.0,1.0,80,0.00,,---,0.00,VWS V14.01,2013-07-14 02:30:00,
2013-07-13 22:00:00,71.6,64.4,29.95,SSE,147,0.0,2.0,78,0.00,,---,0.00,VWS V14.01,2013-07-14 03:00:00,
2013-07-13 22:04:00,71.6,64.4,29.95,SE,146,0.0,0.0,78,0.00,,---,0.00,VWS V14.01,2013-07-14 03:04:00,
2013-07-13 22:09:00,71.6,64.4,29.95,SSE,159,0.0,1.0,78,0.00,,---,0.00,VWS V14.01,2013-07-14 03:09:00,
2013-07-13 22:14:00,71.6,64.0,29.95,SE,141,0.0,1.0,77,0.00,,---,0.00,VWS V14.01,2013-07-14 03:14:00,
2013-07-13 22:19:00,71.6,64.0,29.96,SE,141,0.0,1.0,77,0.00,,---,0.00,VWS V14.01,2013-07-14 03:19:00,
2013-07-13 22:24:00,71.5,63.5,29.96,SE,141,1.0,3.0,76,0.00,,---,0.00,VWS V14.01,2013-07-14 03:24:00,
2013-07-13 22:29:00,71.5,63.2,29.96,SSE,163,0.0,3.0,75,0.00,,---,0.00,VWS V14.01,2013-07-14 03:29:00,
2013-07-13 22:30:00,71.5,63.2,29.96,SSE,167,0.0,3.0,75,0.00,,---,0.00,VWS V14.01,2013-07-14 03:30:00,
2013-07-13 22:34:00,71.5,62.8,29.96,SSE,163,0.0,2.0,74,0.00,,---,0.00,VWS V14.01,2013-07-14 03:34:00,
2013-07-13 22:39:00,71.5,62.8,29.96,SSE,163,0.0,2.0,74,0.00,,---,0.00,VWS V14.01,2013-07-14 03:39:00,
2013-07-13 22:44:00,71.4,62.3,29.96,SSE,163,0.0,2.0,73,0.00,,---,0.00,VWS V14.01,2013-07-14 03:44:00,
2013-07-13 22:49:00,71.3,62.2,29.96,SSE,163,1.0,2.0,73,0.00,,---,0.00,VWS V14.01,2013-07-14 03:49:00,
2013-07-13 22:54:00,71.2,62.1,29.97,SSE,163,0.0,0.0,73,0.00,,---,0.00,VWS V14.01,2013-07-14 03:54:00,
2013-07-13 22:59:00,71.1,62.0,29.96,SSE,163,0.0,1.0,73,0.00,,---,0.00,VWS V14.01,2013-07-14 03:59:00,
2013-07-13 23:00:00,71.1,62.4,29.96,SSE,163,0.0,1.0,74,0.00,,---,0.00,VWS V14.01,2013-07-14 04:00:00,
2013-07-13 23:01:00,71.1,62.4,29.96,SSE,163,0.0,1.0,74,0.00,,---,0.00,VWS V14.01,2013-07-14 04:01:00,
2013-07-13 23:06:00,71.0,62.3,29.97,SSE,163,0.0,0.0,74,0.00,,---,0.00,VWS V14.01,2013-07-14 04:06:00,
2013-07-13 23:11:00,70.8,62.5,29.97,SSE,163,0.0,0.0,75,0.00,,---,0.00,VWS V14.01,2013-07-14 04:11:00,
2013-07-13 23:16:00,70.8,62.5,29.97,SSE,163,0.0,0.0,75,0.00,,---,0.00,VWS V14.01,2013-07-14 04:16:00,
2013-07-13 23:21:00,70.8,62.9,29.97,SSE,163,0.0,0.0,76,0.00,,---,0.00,VWS V14.01,2013-07-14 04:21:00,
2013-07-13 23:26:00,70.7,62.4,29.97,SSE,163,0.0,2.0,75,0.00,,---,0.00,VWS V14.01,2013-07-14 04:26:00,
2013-07-13 23:30:00,70.8,62.5,29.97,SSE,163,0.0,2.0,75,0.00,,---,0.00,VWS V14.01,2013-07-14 04:30:00,
2013-07-13 23:31:00,70.8,62.5,29.97,SSE,163,0.0,2.0,75,0.00,,---,0.00,VWS V14.01,2013-07-14 04:31:00,
2013-07-13 23:36:00,70.9,62.6,29.98,SW,217,0.0,1.0,75,0.00,,---,0.00,VWS V14.01,2013-07-14 04:36:00,
2013-07-13 23:41:00,71.0,62.7,29.98,South,190,0.0,2.0,75,0.00,,---,0.00,VWS V14.01,2013-07-14 04:41:00,
2013-07-13 23:46:00,71.0,62.7,29.99,South,190,0.0,2.0,75,0.00,,---,0.00,VWS V14.01,2013-07-14 04:46:00,
2013-07-13 23:51:00,71.0,62.7,29.99,South,190,0.0,2.0,75,0.00,,---,0.00,VWS V14.01,2013-07-14 04:51:00,
2013-07-13 23:56:00,71.0,62.7,29.98,South,190,0.0,2.0,75,0.00,,---,0.00,VWS V14.01,2013-07-14 04:56:00,